Theta_e
319 317 317 319 322 326 329 326 324 326 328 325 323 321 318 316 316 318 318 319 323 319 316 318 317 318 320 320 320 319 319 319 318 323 327 326 322 321 321 322 322 322 321 319 319 322 323 321 322 321 320 320 319 317 318 320 319 320 321 319 316 315 318 321 321 322 322 318 313 313 314 312 312 318 322 318 315 318 320 320 320 321 324 323 322 323
321 319 324 327 327 330 333 332 331 331 331 327 322 318 316 316 315 318 320 320 327 325 319 320 319 320 321 321 321 320 319 320 320 320 324 326 323 321 321 322 324 323 322 320 320 322 323 322 323 322 320 319 319 318 318 319 319 321 322 319 315 314 320 322 320 319 320 315 312 313 314 311 311 317 320 316 314 316 317 316 315 318 322 322 322 323
322 323 329 332 329 329 330 330 331 329 327 324 322 318 317 317 315 320 326 323 325 326 323 322 321 323 326 323 322 321 320 320 322 322 322 324 322 321 321 322 324 323 323 323 321 323 323 323 323 322 321 320 319 318 318 318 318 321 323 320 317 315 320 321 316 314 315 314 313 312 314 314 313 315 317 316 316 318 318 319 318 318 320 320 319 321
324 327 329 329 328 326 326 329 329 327 327 324 321 319 318 319 316 318 326 326 325 324 323 322 322 326 328 324 321 320 320 321 323 325 324 323 322 322 323 323 324 324 326 324 322 323 323 323 323 323 322 321 319 318 318 318 318 322 323 321 320 317 319 320 316 313 313 313 313 311 313 316 314 316 320 319 318 318 317 319 319 319 320 318 317 318
323 327 329 328 327 324 325 329 326 322 326 327 322 319 319 322 319 318 324 328 328 330 327 320 323 332 329 319 319 317 317 321 322 322 323 323 324 326 327 326 325 327 328 325 322 323 324 323 323 323 323 322 321 319 319 319 318 321 324 323 322 320 319 320 318 316 314 310 311 312 314 316 316 319 321 317 315 317 318 318 317 317 318 316 315 317
319 327 332 328 325 322 322 326 326 322 323 325 326 325 324 324 323 321 323 324 324 329 332 321 323 340 338 319 318 318 315 318 321 319 319 321 323 324 325 326 327 329 329 327 323 322 323 323 323 323 324 324 323 321 320 320 319 321 323 324 324 322 319 319 319 319 316 309 310 315 316 316 317 317 316 313 313 314 315 316 316 316 316 315 315 315
319 326 330 327 325 324 322 322 325 325 321 321 326 327 327 325 324 324 321 319 319 322 329 323 320 335 336 320 318 320 316 316 319 319 319 319 320 320 321 323 325 328 330 331 327 322 322 323 324 324 324 324 325 323 322 322 323 323 323 324 326 324 321 319 318 320 317 310 310 318 320 318 318 316 311 311 312 312 311 311 312 315 316 316 317 317
322 323 325 325 323 323 322 321 324 325 319 320 325 324 324 323 322 326 321 318 320 319 324 325 318 323 327 319 319 321 318 317 318 319 318 318 319 318 319 319 321 324 329 332 329 323 322 322 323 325 324 324 325 325 325 324 325 325 324 325 326 326 323 319 319 320 316 311 314 321 322 320 319 316 311 310 310 311 312 312 313 316 316 316 317 317
326 324 325 326 321 319 319 321 324 324 319 322 327 325 323 322 321 324 320 318 319 317 323 327 319 320 324 322 320 320 319 318 319 320 318 318 318 318 318 317 318 321 326 329 327 323 322 321 322 325 325 325 325 325 326 325 326 326 325 325 326 326 324 321 320 319 314 314 319 321 319 316 316 316 313 311 311 312 313 314 314 315 315 315 314 314
323 323 326 325 321 319 318 319 319 320 321 324 326 323 321 320 321 321 318 317 318 318 323 325 319 321 324 324 321 319 319 319 319 318 318 318 318 318 319 319 319 320 323 324 324 323 322 320 321 324 325 325 326 326 326 325 325 326 325 326 326 326 325 323 322 320 315 317 321 318 315 315 316 316 314 313 314 314 313 314 313 313 314 315 315 315
316 318 322 320 318 319 318 318 317 316 321 323 321 318 317 319 320 318 317 315 316 319 323 322 320 321 321 322 321 320 321 321 319 318 318 318 319 320 321 323 321 320 322 322 322 323 322 321 321 322 323 325 326 326 326 326 325 326 326 326 326 326 325 323 323 320 317 318 320 317 315 316 316 316 315 315 315 315 314 315 314 313 314 315 315 315
315 315 319 317 316 315 314 315 315 315 317 320 319 317 318 321 319 317 316 314 316 321 324 320 318 320 321 322 323 323 322 320 320 320 321 320 318 320 321 322 321 320 321 320 323 325 324 323 322 321 322 324 326 326 327 327 326 326 326 326 326 326 325 324 323 321 318 317 320 319 316 316 317 316 316 315 315 315 315 315 315 314 314 315 313 314
318 315 315 316 316 313 314 313 312 313 315 317 318 315 316 318 317 317 318 319 321 324 325 320 317 322 324 322 321 323 320 318 320 321 322 320 319 319 320 320 320 320 320 320 322 325 326 326 323 322 322 323 325 327 326 327 326 325 326 326 326 326 326 324 323 322 319 316 319 319 317 317 317 316 315 315 315 316 315 315 315 314 315 315 314 314
322 323 315 314 316 313 312 312 311 313 315 316 316 316 317 316 315 317 320 321 322 322 323 321 319 323 325 322 320 321 320 320 321 320 321 321 322 323 320 319 320 319 320 321 321 323 327 327 322 322 323 323 325 326 326 327 327 326 326 326 326 326 326 325 323 322 320 317 318 319 317 317 317 316 315 314 315 317 317 315 314 314 315 314 313 313
319 324 320 315 316 314 311 311 313 314 314 316 314 315 317 317 315 316 318 319 320 322 323 320 319 321 325 328 324 320 321 320 318 320 321 321 325 326 321 318 321 320 320 321 321 322 326 324 321 322 323 323 325 326 326 328 327 327 327 326 327 327 326 325 323 322 321 318 317 317 316 316 316 316 316 314 314 317 316 315 315 315 315 314 313 313
313 317 318 315 315 314 310 311 312 312 314 320 316 311 316 319 318 318 319 320 319 323 323 319 319 321 322 326 323 318 320 320 318 320 319 320 324 325 323 321 321 321 320 321 321 322 325 323 320 322 322 323 325 325 327 328 328 328 328 327 327 327 327 325 324 323 322 319 318 316 316 316 317 316 316 314 315 316 316 314 315 314 314 314 313 313
315 318 317 312 313 313 311 313 311 311 318 323 317 314 318 318 316 319 323 321 318 322 322 316 320 324 320 321 321 318 321 319 317 319 317 320 323 323 326 325 322 321 320 320 322 323 324 322 320 321 322 323 324 325 327 329 329 329 328 327 327 327 327 326 324 323 322 320 319 317 316 316 317 317 316 315 314 314 315 315 314 314 313 313 312 311
316 319 318 311 312 313 310 314 313 311 316 318 314 315 318 318 319 321 321 319 318 320 320 316 320 323 320 321 321 317 317 318 318 319 319 321 322 322 324 323 320 320 320 322 326 326 324 322 320 321 322 323 324 326 328 329 329 329 329 328 328 328 327 326 325 324 323 321 320 319 317 317 317 316 315 314 313 312 313 314 314 313 312 311 310 310
317 319 318 312 312 314 310 313 318 317 314 313 313 314 315 318 322 320 317 318 318 319 320 321 320 319 317 318 318 315 316 319 319 320 319 319 320 321 322 321 320 320 320 322 328 327 324 322 320 321 323 323 325 326 328 329 330 330 330 329 328 328 328 327 325 324 323 321 320 319 318 317 317 316 315 314 313 313 313 313 313 313 311 309 309 310
318 318 320 316 310 313 313 313 319 320 315 314 315 314 314 316 318 318 317 317 318 317 319 321 320 320 321 319 316 317 318 318 319 320 320 319 319 320 322 323 322 322 322 324 325 325 325 323 321 321 323 324 326 327 328 329 330 330 330 329 328 328 328 327 326 324 323 322 321 320 319 318 317 316 315 314 314 313 313 313 313 312 311 310 311 311
318 317 322 320 313 313 314 313 315 315 313 315 316 316 317 315 316 319 318 316 318 320 319 320 321 322 325 322 317 320 322 319 319 320 321 322 321 321 322 324 324 323 324 324 322 323 324 323 321 322 323 325 327 328 329 330 330 330 330 329 328 328 327 326 325 324 323 322 321 320 318 318 317 316 315 314 314 313 312 313 312 312 311 311 311 311
321 318 320 319 316 315 315 312 311 311 311 312 313 314 316 318 320 321 319 319 325 327 324 325 324 319 318 319 319 321 322 320 320 321 321 323 323 323 323 323 325 325 326 324 321 322 324 322 322 322 323 324 326 327 329 329 330 330 329 329 328 328 327 326 325 324 323 322 320 319 318 318 318 317 315 314 313 312 312 312 312 311 311 311 310 310
318 316 315 316 314 312 312 311 310 311 310 310 311 312 314 318 321 322 321 321 323 324 322 324 324 319 317 320 320 320 320 319 320 320 322 323 323 323 323 321 323 324 326 326 324 323 321 318 320 322 322 322 324 325 327 328 328 329 329 328 328 327 327 326 325 324 323 322 320 319 318 318 317 317 315 314 313 312 312 312 311 311 311 310 310 309
317 316 315 316 315 312 312 311 309 310 310 311 315 315 313 313 315 320 324 322 321 322 320 320 323 321 320 322 319 317 318 318 318 317 316 317 317 317 318 320 321 323 325 326 326 325 318 313 316 320 320 320 320 322 325 328 328 328 329 328 327 327 326 326 325 324 323 321 320 319 318 318 317 316 315 314 314 313 313 312 312 311 310 310 310 310
318 319 318 317 318 318 316 314 314 314 312 311 313 314 313 312 313 318 322 320 321 324 320 320 325 322 318 319 318 316 316 315 315 314 312 313 313 312 313 315 319 321 322 323 324 324 321 318 316 315 316 317 319 321 324 327 328 328 328 328 327 326 326 325 325 324 322 321 319 318 318 318 317 316 315 315 314 313 313 312 312 311 311 311 310 310
319 319 316 315 317 317 316 314 314 312 309 308 309 310 311 311 311 315 316 315 319 322 318 320 326 323 317 316 315 315 316 314 314 312 312 311 311 311 311 312 314 315 317 320 322 322 323 324 320 314 313 316 320 323 325 327 327 328 327 327 326 326 325 324 324 323 322 320 319 318 318 317 317 316 315 315 314 313 313 312 312 311 311 311 310 310
316 313 313 315 316 315 313 312 310 308 306 307 308 309 309 310 312 313 314 315 318 317 315 317 320 318 316 313 311 313 315 315 315 314 313 313 312 311 310 310 311 311 311 314 317 319 321 323 321 316 313 315 320 324 325 325 325 325 325 325 324 324 323 322 323 322 321 319 318 317 317 316 316 316 315 314 314 313 313 312 311 311 311 311 310 310
313 312 315 314 312 311 308 307 306 305 306 307 308 309 309 311 312 312 313 316 316 313 312 313 313 313 313 311 309 310 311 314 315 314 314 314 313 311 310 309 310 309 311 311 313 316 318 320 322 318 313 314 319 321 322 323 322 322 323 322 321 321 321 321 322 321 320 318 317 317 317 316 316 315 315 314 314 313 312 312 311 311 310 310 309 309
314 315 316 312 309 309 307 306 307 307 307 308 308 310 310 311 312 311 312 313 312 312 313 313 312 312 312 309 308 309 310 311 312 313 313 312 311 310 309 309 309 309 311 311 311 312 314 317 321 318 313 313 315 317 319 320 319 319 320 320 320 320 319 320 321 321 319 318 317 317 316 316 315 315 314 314 313 312 312 311 311 310 309 308 308 307
314 314 314 310 309 309 307 308 308 307 308 308 308 309 309 310 311 310 310 310 309 311 312 312 312 311 310 308 308 309 309 310 310 311 311 310 310 311 310 310 311 311 311 311 311 311 312 315 318 316 311 312 314 315 316 318 317 317 319 319 319 319 319 319 320 320 318 317 317 316 316 316 315 315 314 313 312 311 311 310 309 308 308 307 307 306
312 313 311 309 310 310 308 308 308 307 308 308 307 308 308 310 310 309 309 309 308 310 311 311 312 311 308 307 309 311 310 309 310 310 311 311 312 313 312 311 311 311 311 311 311 311 312 314 319 320 314 311 313 313 314 316 316 316 317 318 318 318 319 319 319 318 317 316 316 316 316 315 315 314 313 312 311 311 310 309 308 307 307 307 306 305
310 312 309 309 311 310 307 308 309 308 309 307 307 308 308 310 311 310 309 309 309 309 310 310 311 309 307 307 309 311 311 310 310 310 312 314 314 313 313 313 312 311 310 310 310 311 310 312 317 321 316 313 313 314 314 315 315 315 316 317 317 318 318 318 317 317 316 316 315 315 315 315 314 313 312 311 310 309 308 308 307 307 306 305 305 304
308 309 309 309 309 308 307 308 310 310 309 307 309 312 310 309 310 310 310 311 310 309 310 311 310 308 307 308 309 311 312 311 311 311 311 312 313 313 313 313 312 311 310 311 311 311 311 311 312 315 315 314 314 314 314 314 314 315 317 317 317 317 317 316 316 316 315 314 314 314 313 312 311 310 310 309 309 308 307 307 306 306 305 304 304 303
307 308 309 308 307 308 308 308 309 309 307 306 308 312 310 309 311 310 311 312 311 310 311 311 310 309 309 311 311 312 312 312 311 311 310 310 312 312 312 311 312 312 312 313 313 312 312 310 309 310 312 314 314 314 315 315 314 315 317 316 316 316 316 315 315 314 314 313 313 313 312 310 310 309 309 308 307 306 306 306 305 305 304 304 303 302
307 308 309 306 307 308 308 307 308 307 307 306 308 311 309 309 311 310 310 311 310 311 312 310 310 311 312 313 313 313 313 312 312 311 311 311 311 311 310 311 311 311 311 312 312 312 311 309 309 310 312 314 314 314 315 315 314 315 315 315 315 315 315 315 314 313 313 312 312 311 310 310 309 308 307 306 305 305 305 305 304 304 303 303 302 302
306 308 308 307 308 308 307 308 307 306 306 306 308 312 314 314 315 314 314 314 312 311 313 312 311 311 312 312 312 312 312 312 311 310 311 312 310 309 309 310 309 309 309 310 311 311 310 309 310 312 313 314 314 315 315 315 314 314 314 314 314 315 315 314 313 312 311 310 310 309 308 308 307 306 305 305 305 304 304 304 303 303 302 301 301 300
305 307 309 309 308 307 307 308 308 306 306 306 309 314 317 317 317 316 315 316 313 311 313 314 312 312 312 311 311 311 311 311 310 310 311 310 308 308 309 308 308 309 309 309 310 310 310 311 312 312 312 313 314 315 316 314 313 313 313 313 313 313 313 313 311 311 310 308 308 307 306 305 305 304 304 304 304 304 303 303 302 302 301 300 300 299
304 305 307 308 308 308 308 308 308 307 306 308 312 314 314 314 315 314 314 313 311 309 311 312 311 311 312 312 313 312 312 311 310 310 310 309 307 307 308 307 308 308 309 309 310 311 311 312 313 313 312 313 313 315 314 313 312 312 312 312 312 312 311 311 310 309 308 308 307 306 305 305 304 303 303 303 303 303 302 302 302 301 300 300 299 298
305 305 306 306 307 309 309 308 308 307 306 310 313 313 312 313 315 315 313 310 309 308 309 309 310 310 311 312 313 312 311 312 310 308 308 308 307 307 308 308 308 308 308 310 311 311 311 311 312 313 313 313 313 314 313 311 310 311 311 310 310 310 309 309 308 308 308 307 306 305 304 303 303 302 302 303 302 302 302 301 301 300 300 299 298 298
306 307 307 307 307 308 309 308 307 305 306 310 312 311 312 312 313 313 310 307 309 310 309 309 310 309 309 311 311 310 311 311 309 307 307 308 306 307 308 309 308 307 308 310 311 310 310 310 310 312 313 312 312 313 312 310 310 310 310 309 308 308 308 307 306 306 305 304 303 303 302 302 302 302 302 302 301 301 301 301 300 300 299 298 297 297
307 308 308 308 308 309 309 308 307 307 308 310 310 310 310 310 310 310 308 307 308 309 309 310 310 308 309 310 311 311 311 311 308 307 307 307 307 309 308 307 307 307 307 309 310 309 309 310 309 310 311 311 311 311 311 310 310 309 309 308 308 307 305 304 304 303 303 302 302 302 302 302 302 301 301 301 301 301 301 301 300 299 298 298 297 297
307 307 308 308 308 308 308 307 307 307 307 308 310 309 308 308 308 308 308 306 306 307 308 309 308 308 309 310 311 311 311 310 308 308 308 307 308 310 308 306 306 306 306 309 310 309 307 308 308 308 310 310 309 309 310 310 309 308 308 308 307 305 303 303 303 302 302 302 302 302 301 301 301 301 301 301 301 300 300 299 299 298 297 297 297 296
304 305 307 307 305 305 305 305 305 305 306 308 309 307 308 310 309 305 304 305 305 306 308 308 307 308 308 308 309 310 310 309 309 309 308 308 310 310 307 305 305 305 306 308 310 308 306 306 307 308 309 309 307 308 310 310 309 308 307 306 304 303 303 303 302 302 302 302 301 301 301 301 301 300 300 299 299 298 298 298 298 298 297 297 296 296
302 303 305 305 304 305 305 304 304 306 308 309 307 306 309 311 307 303 305 306 307 309 309 308 308 309 308 308 309 309 309 309 309 309 309 309 310 310 307 304 303 304 306 307 309 308 306 305 307 308 309 308 308 308 309 309 308 307 305 303 302 302 302 302 301 301 302 301 301 301 300 299 299 298 298 298 298 298 298 298 298 297 297 296 296 296
303 302 303 305 304 303 303 304 304 305 306 307 307 307 308 307 305 306 307 307 308 309 308 308 310 310 309 308 309 308 308 308 308 308 308 309 311 310 307 304 303 304 306 306 307 307 306 305 306 308 308 308 308 308 308 308 306 304 303 302 302 302 302 301 301 302 301 301 300 299 299 298 298 298 298 298 298 298 298 298 297 297 296 296 296 295
301 301 302 303 303 301 301 302 303 303 303 304 304 304 304 305 305 307 308 308 309 311 309 309 310 310 308 308 308 308 308 307 308 307 306 307 310 309 306 305 304 304 305 306 305 306 306 306 306 308 308 308 308 308 308 307 305 303 302 303 303 302 302 301 301 301 301 300 299 298 298 299 299 299 299 298 298 298 297 297 297 297 296 296 296 295
300 301 300 300 301 301 301 301 301 301 301 301 302 302 303 305 305 306 307 307 308 309 309 309 310 309 308 308 308 308 307 307 307 306 304 306 308 309 308 307 305 304 305 306 306 306 306 307 308 308 308 308 308 307 307 305 304 303 303 303 303 302 302 302 301 301 300 299 299 299 299 299 299 299 299 299 299 298 298 297 297 297 296 296 295 295
300 301 300 300 300 300 300 300 299 299 300 300 302 302 303 305 305 306 307 307 307 308 309 309 309 309 308 308 307 307 307 306 305 305 304 305 307 309 308 306 305 305 306 306 306 306 306 307 308 307 307 307 307 307 305 304 303 303 303 303 302 302 302 302 301 300 300 299 299 299 299 299 299 299 299 299 298 298 298 297 297 296 296 295 295 294
300 300 299 300 300 299 299 300 300 300 300 300 302 302 301 304 306 306 306 306 307 308 309 308 308 307 307 307 306 306 305 305 304 304 304 305 305 306 305 304 304 306 306 305 305 306 306 307 307 307 307 307 307 306 304 303 303 303 303 302 302 301 301 301 301 300 300 299 300 300 299 300 299 299 299 299 298 297 297 297 297 296 296 295 295 294
299 299 299 300 301 301 300 300 300 301 300 300 301 301 301 303 304 305 305 304 306 308 310 310 309 306 304 304 304 304 304 304 303 303 303 304 304 304 303 303 303 305 305 304 305 305 305 305 307 307 306 306 306 305 303 303 303 303 302 302 302 301 301 301 301 300 300 300 300 300 300 300 299 299 299 298 298 297 297 297 297 296 296 295 295 294
299 299 299 300 300 300 300 300 301 302 301 301 301 301 301 301 302 303 304 304 305 308 309 309 308 306 305 304 303 303 303 302 302 302 303 303 304 304 304 303 303 303 303 304 305 305 304 305 307 307 306 306 305 304 303 303 302 302 302 302 302 301 301 301 301 301 300 300 300 300 300 300 300 299 299 298 298 297 297 297 296 296 295 295 294 294
Wind_Speed
4 2 2 4 6 7 4 3 3 2 3 3 3 3 5 5 5 7 5 2 5 5 5 6 7 7 7 5 5 6 5 7 9 8 6 7 8 9 10 9 10 12 11 17 27 31 34 35 33 34 32 30 27 26 26 25 23 21 20 19 17 16 14 13 10 10 11 10 11 10 9 9 6 5 4 3 2 2 2 2 1 2 4 4 3 3
3 4 6 7 8 8 5 4 5 4 6 4 3 3 5 5 5 5 3 3 4 4 3 2 2 5 6 5 4 2 5 5 7 9 7 7 9 8 10 10 9 9 9 13 19 24 30 31 31 33 33 32 31 30 29 28 26 22 21 20 18 16 13 9 9 11 13 13 12 10 9 8 7 8 5 3 3 2 3 4 2 1 2 3 4 5
2 4 8 9 5 4 3 3 6 5 4 4 3 3 3 4 6 5 3 5 7 4 2 6 5 5 6 6 7 4 4 6 7 9 9 9 9 9 10 10 9 8 8 12 14 18 27 30 31 32 32 33 32 32 31 29 27 24 22 20 18 16 13 10 12 15 15 15 13 11 9 8 7 8 6 5 6 5 5 5 5 3 1 2 2 3
3 5 9 8 4 1 2 2 6 5 3 2 1 2 2 4 4 5 3 4 4 2 1 4 5 5 6 6 7 8 7 6 7 10 10 9 9 9 10 9 9 9 8 12 14 15 22 27 28 29 30 32 31 31 31 30 28 27 24 21 19 17 14 13 14 14 13 13 12 11 10 9 7 6 6 6 6 5 4 3 2 0 4 4 3 2
6 6 6 6 5 3 2 3 4 4 3 4 2 2 3 4 5 5 3 1 2 2 1 1 5 5 5 6 7 8 8 6 8 11 9 7 7 8 8 8 8 9 8 12 15 13 17 22 24 27 29 30 30 31 32 32 31 29 26 22 21 19 17 16 15 14 14 14 13 12 11 11 9 7 7 6 6 5 3 3 4 2 5 5 3 3
9 7 7 7 5 3 1 3 1 3 1 4 4 5 6 6 8 8 4 1 4 5 3 1 2 5 5 7 9 7 7 7 6 11 11 8 7 6 6 7 6 7 6 9 14 14 16 21 24 25 27 28 29 31 32 32 31 30 27 24 23 20 19 18 16 16 16 15 15 14 14 14 12 10 10 8 7 6 5 5 5 3 3 2 3 3
4 4 7 7 4 4 4 2 1 4 3 2 4 5 6 6 7 10 8 2 2 2 4 3 3 5 5 5 9 7 7 10 8 11 12 9 8 7 6 7 7 6 6 6 11 15 15 19 21 23 26 29 29 31 32 32 30 29 28 26 24 22 21 21 19 18 18 16 15 14 14 15 13 13 12 10 8 7 5 4 4 4 2 1 2 3
2 2 3 4 2 2 4 3 3 5 4 3 4 4 6 5 4 7 8 4 3 2 4 1 4 4 4 6 8 6 7 9 8 10 12 10 10 10 9 9 9 8 8 7 11 15 16 18 22 24 28 30 31 32 31 31 30 29 28 26 25 23 22 22 21 20 18 17 16 14 13 13 14 15 13 9 8 7 5 4 4 4 2 1 2 2
3 3 3 4 2 2 3 4 5 5 4 5 5 5 5 3 2 4 3 1 0 1 5 5 3 3 5 6 7 7 6 6 8 11 12 12 12 12 11 11 11 10 9 8 11 15 17 21 25 28 31 32 32 32 32 33 31 29 28 27 26 25 24 24 23 21 19 18 16 15 14 12 13 14 12 9 8 8 7 5 5 4 4 3 2 2
3 4 6 6 4 3 3 5 5 4 5 7 6 3 0 1 3 3 2 3 4 2 5 6 3 2 5 5 6 7 6 6 9 11 11 11 11 11 11 11 11 10 9 9 12 15 19 26 30 31 32 32 32 33 33 33 31 29 29 28 27 27 26 25 24 22 20 18 17 18 16 14 14 14 11 10 10 10 8 7 6 5 5 3 2 2
5 1 3 3 2 3 3 5 5 6 6 5 5 1 3 3 4 3 2 1 3 3 6 7 5 4 4 5 5 5 4 5 5 6 9 9 10 9 8 8 10 10 8 8 10 13 19 28 31 31 30 30 31 32 31 31 31 31 30 30 29 28 27 25 25 24 21 20 20 20 18 16 16 15 13 13 15 13 11 9 8 5 5 5 4 4
6 4 0 2 3 3 2 5 5 6 4 3 3 2 3 4 4 3 3 2 1 5 7 7 6 4 4 5 5 6 6 6 4 2 6 8 9 9 8 7 8 9 9 9 9 11 15 19 23 26 27 28 29 29 30 31 32 32 31 31 30 29 28 26 26 25 23 22 21 21 20 18 18 17 16 17 19 16 14 12 11 8 7 7 7 7
5 5 5 4 6 6 4 3 5 6 3 2 3 4 3 2 3 2 2 1 4 5 5 5 5 4 5 6 7 8 9 8 5 2 5 6 6 7 8 7 7 8 9 9 9 10 11 12 15 22 25 26 28 30 31 32 32 32 31 31 31 30 29 28 27 26 25 24 22 21 21 20 19 19 19 19 18 16 16 15 13 12 10 9 8 8
3 6 7 4 4 6 6 4 2 4 3 4 4 4 3 2 1 2 3 2 3 3 4 5 3 4 4 5 7 8 8 7 5 5 6 7 7 8 8 7 7 7 9 9 9 10 10 10 14 21 26 27 29 32 33 33 33 33 31 31 32 31 30 29 28 27 27 26 24 23 22 22 21 20 21 20 18 17 17 16 14 13 13 11 10 9
1 4 4 2 1 5 6 6 6 5 4 4 5 5 5 4 3 4 3 2 3 2 3 4 3 3 3 5 8 6 8 7 4 3 4 4 6 8 7 7 7 7 8 9 10 10 10 14 19 23 27 29 31 33 34 33 34 33 32 32 32 32 31 30 30 29 28 27 26 25 23 23 23 21 20 19 18 17 17 15 14 13 13 13 11 10
1 4 4 4 4 8 8 7 7 4 3 3 3 4 5 5 5 4 3 4 2 1 3 1 2 4 4 7 10 7 8 9 8 4 2 4 2 7 6 6 7 6 6 7 9 10 11 16 22 24 25 28 30 32 32 33 34 34 33 33 33 33 32 31 31 30 29 28 27 26 24 23 23 22 20 19 18 17 16 15 15 14 13 12 12 11
1 5 5 5 4 4 6 7 8 5 2 3 3 3 5 6 6 3 2 1 2 1 3 2 3 6 4 6 8 6 7 9 9 7 2 3 3 6 7 6 7 5 4 3 5 9 10 13 18 21 23 25 27 29 31 33 35 35 35 34 33 32 32 32 31 31 30 28 27 26 25 24 23 23 22 20 19 17 15 15 16 15 13 13 12 11
2 4 6 7 8 10 8 4 4 6 5 3 4 4 4 2 2 3 1 1 1 2 4 2 3 6 3 4 6 6 8 10 8 7 6 4 1 1 2 4 6 7 6 5 6 8 10 11 15 19 22 26 29 31 32 34 35 35 35 35 34 32 33 33 33 32 31 29 28 27 26 26 24 23 22 20 19 18 17 17 17 16 15 13 12 11
3 1 5 5 7 10 8 5 2 3 3 5 7 5 1 1 1 1 1 2 2 2 4 3 5 4 3 4 5 6 6 7 8 8 7 8 8 6 6 4 3 3 2 4 7 9 8 10 15 19 21 26 29 31 32 33 33 33 33 33 33 33 34 34 33 32 31 30 28 27 27 26 25 23 22 20 19 19 19 18 18 16 15 12 10 10
2 0 3 4 6 8 7 4 3 5 5 4 5 4 1 3 3 2 2 2 3 2 3 3 3 3 4 5 2 4 5 6 7 7 7 9 10 8 7 7 7 7 4 3 4 9 9 10 17 22 24 26 28 30 32 31 30 30 30 31 32 32 32 32 33 32 31 30 29 28 27 26 25 24 23 22 20 20 19 18 18 16 13 11 10 11
2 1 3 3 7 6 4 3 3 4 5 5 4 4 3 1 0 0 1 1 3 2 1 1 3 5 5 2 3 4 5 5 6 5 5 6 7 7 7 7 6 6 7 7 4 3 9 12 17 22 25 27 29 30 30 30 29 30 30 30 30 30 30 30 32 32 32 30 29 28 27 27 26 25 24 23 22 21 19 18 16 14 12 11 11 12
2 1 2 3 4 3 5 7 8 8 7 5 4 4 3 2 1 1 4 1 4 2 3 2 4 6 6 3 3 4 4 5 6 5 5 6 7 6 6 7 6 5 6 7 7 5 2 9 16 20 22 24 26 28 29 30 30 30 30 30 30 30 30 30 32 33 32 30 29 28 28 27 26 25 24 23 23 21 20 17 15 13 12 12 12 12
0 2 1 3 3 5 8 9 11 13 13 9 5 4 3 1 3 3 3 2 1 2 3 3 2 6 5 2 2 4 5 6 7 7 6 6 7 7 7 7 7 6 6 6 7 7 6 1 10 19 21 22 24 26 28 29 30 31 31 31 30 30 30 31 32 33 32 30 29 28 27 26 25 24 24 23 22 20 19 17 15 13 12 12 12 12
2 1 0 3 3 4 6 8 9 9 8 6 5 3 2 1 1 4 5 3 2 2 2 3 2 7 4 2 4 4 5 6 7 8 8 7 7 7 7 7 7 7 7 7 6 5 6 8 3 8 14 18 22 25 27 29 30 31 32 32 31 31 31 31 32 32 31 30 29 28 27 26 25 24 23 22 21 19 18 16 14 13 12 12 12 12
1 0 1 2 4 5 5 4 5 4 4 2 4 5 3 3 3 2 1 2 1 4 5 4 3 7 4 3 5 5 6 6 6 8 8 8 8 8 8 7 7 7 8 8 8 7 7 7 6 2 3 6 11 17 24 28 30 31 32 33 33 32 31 31 32 32 31 30 29 28 27 26 25 24 24 22 20 18 16 15 13 12 12 12 13 13
1 1 2 1 3 3 2 1 1 4 4 3 4 6 7 7 6 3 1 1 1 3 3 4 5 7 6 4 4 5 7 7 7 9 9 8 8 8 8 8 7 7 7 8 7 8 7 6 6 4 1 1 6 13 19 24 27 30 31 32 33 33 32 31 31 33 32 31 30 29 28 26 25 24 23 22 20 18 16 14 12 12 12 13 13 14
2 1 2 4 6 5 5 5 4 5 6 7 8 9 8 7 4 3 2 1 3 2 4 4 4 6 10 8 2 3 6 7 8 9 9 8 9 10 10 11 11 10 9 8 7 8 8 7 9 8 1 4 9 14 16 19 22 24 26 28 29 31 31 30 30 32 32 31 30 29 28 27 25 24 22 21 19 17 15 14 13 13 13 13 14 14
3 2 4 6 8 7 7 8 8 7 9 10 11 13 11 6 4 3 3 5 4 2 5 6 3 4 10 13 7 2 4 4 5 5 5 6 7 8 10 12 13 12 10 9 8 8 9 8 9 10 6 8 10 11 11 13 14 17 21 24 24 27 29 28 30 31 31 30 29 28 28 27 25 23 21 19 18 16 15 14 13 13 13 13 13 14
3 3 5 7 9 9 8 8 8 8 10 10 11 13 11 6 5 3 6 7 3 3 7 8 5 5 10 14 11 3 2 2 4 4 5 6 7 8 9 10 11 10 9 9 10 8 8 7 8 10 12 13 14 13 12 13 13 15 22 26 27 28 29 30 30 31 30 29 29 28 27 26 24 22 21 18 17 15 15 14 13 13 13 14 14 13
3 3 6 7 8 8 7 7 8 8 9 11 13 13 8 5 4 6 7 7 5 6 8 9 8 9 10 9 9 4 0 1 3 4 6 6 6 6 6 7 7 7 7 8 9 9 8 7 8 10 13 14 13 17 18 18 17 14 18 26 30 29 29 30 30 30 29 28 27 27 26 25 23 22 20 18 16 15 14 13 13 14 14 14 13 12
2 2 4 4 5 6 5 5 8 8 8 13 14 10 6 6 8 9 8 7 6 7 8 7 9 11 7 3 5 6 3 2 4 5 5 4 4 6 7 8 8 8 9 9 8 9 9 8 8 7 10 14 11 14 19 20 19 15 16 22 26 26 27 28 27 28 28 26 25 26 25 24 23 21 19 18 16 14 13 13 14 14 13 12 11 10
2 3 4 2 4 3 3 4 7 6 8 13 12 6 4 6 7 7 7 7 6 7 8 7 7 9 9 4 5 7 5 4 4 4 5 4 5 6 7 7 8 9 10 11 10 9 10 10 8 6 8 14 16 13 17 20 19 16 16 20 22 21 22 23 24 25 25 24 24 24 24 23 22 20 18 16 14 13 13 13 13 13 12 10 8 9
1 2 3 3 5 2 3 0 4 5 7 10 7 4 6 7 7 7 7 7 8 7 6 6 7 8 9 7 4 5 5 5 4 3 4 4 5 5 6 7 8 9 9 9 9 9 10 10 10 9 11 14 19 19 17 21 22 21 22 24 23 20 19 20 22 23 23 22 23 24 22 20 19 18 16 14 13 12 12 12 12 11 10 8 9 11
2 3 2 1 4 3 2 4 5 6 6 5 3 3 4 5 7 8 8 8 8 6 4 5 6 5 5 5 4 4 5 4 3 3 4 5 5 6 7 6 6 7 6 7 8 8 9 11 14 19 19 17 20 21 17 19 24 26 28 29 27 24 23 22 21 20 21 21 22 22 20 18 16 15 13 11 11 10 9 9 9 8 8 9 11 12
4 4 4 2 3 3 2 6 2 8 7 2 1 3 6 6 6 6 8 7 2 2 3 4 5 5 5 5 4 4 5 5 5 5 5 6 5 4 6 6 6 7 8 7 8 8 9 12 16 21 22 21 23 21 16 18 23 25 25 28 29 27 26 24 22 20 20 21 21 20 19 17 15 13 11 9 8 7 7 7 6 6 7 9 9 9
7 5 4 3 3 3 1 3 4 9 7 3 3 5 5 4 3 4 6 6 4 5 4 4 5 5 5 5 4 4 6 7 6 5 5 5 3 5 6 6 7 8 8 9 10 11 14 17 20 22 23 25 25 21 19 22 27 28 26 27 28 28 29 27 23 21 21 20 20 20 19 16 13 10 8 7 7 6 5 3 3 4 6 6 6 6
8 5 4 4 4 4 4 4 3 8 10 6 3 2 1 1 2 4 1 5 5 3 4 4 4 5 5 5 5 6 7 7 6 5 4 4 7 9 8 8 9 8 9 14 18 21 23 24 26 27 27 27 26 21 21 23 25 26 27 29 29 29 32 29 23 22 23 21 20 19 16 13 9 7 6 4 3 1 1 2 3 5 7 7 6 7
12 9 6 5 4 4 4 4 3 6 8 4 3 4 3 4 6 7 3 3 4 2 4 4 2 4 5 5 6 7 6 6 6 6 4 6 9 11 12 11 10 10 13 17 22 24 24 23 26 28 28 28 25 19 22 23 21 20 21 27 30 29 30 29 25 25 24 21 19 17 14 11 8 6 4 3 4 4 4 5 6 9 10 9 7 8
13 12 8 6 5 4 4 5 4 5 6 4 6 6 4 5 7 6 4 4 4 3 4 3 3 4 4 3 4 5 5 4 6 6 5 8 10 10 10 9 9 13 17 19 19 20 21 21 24 25 24 22 20 20 24 24 23 21 19 21 26 28 27 27 26 26 25 22 20 17 13 10 7 5 5 5 5 4 4 7 9 9 8 6 7 9
4 6 7 7 6 4 4 4 3 4 3 1 4 4 4 4 5 7 3 5 4 5 4 2 3 3 3 1 2 3 2 4 6 7 7 9 10 9 7 7 9 13 17 19 17 17 19 19 22 20 14 8 10 17 24 27 25 23 22 20 21 23 24 24 25 26 25 22 19 15 12 9 8 7 5 4 3 4 6 7 7 5 4 5 7 11
4 1 5 7 6 5 5 4 3 2 1 4 2 1 3 2 5 4 4 6 4 6 4 3 2 3 4 2 1 1 4 5 7 9 9 9 10 8 7 11 14 15 18 20 17 13 13 14 17 21 15 2 8 8 18 28 27 26 27 24 19 19 25 30 30 26 22 19 17 16 14 11 8 5 2 1 2 3 3 3 3 3 3 5 10 15
4 3 0 2 3 4 5 4 3 1 0 2 3 3 4 3 1 2 5 5 4 5 2 2 1 3 3 1 3 4 5 6 8 9 9 9 9 7 7 11 14 15 18 20 15 9 9 10 12 19 20 6 15 17 17 22 25 26 28 24 20 23 30 32 28 23 20 19 17 15 12 8 5 3 2 2 2 1 1 1 3 3 4 7 12 17
3 3 3 2 2 1 1 1 2 2 2 3 1 3 2 2 3 4 6 5 3 3 2 2 2 3 3 2 3 5 6 7 8 8 8 8 7 6 7 9 10 12 15 16 13 7 7 9 9 11 15 10 8 14 12 15 20 23 23 23 26 30 30 28 25 23 20 18 15 11 9 8 8 8 6 5 3 3 3 3 4 3 5 9 13 16
4 2 2 3 2 1 1 2 2 3 4 3 1 2 3 5 4 5 4 3 2 1 1 0 1 0 1 2 4 6 6 7 7 7 8 7 6 6 6 7 9 13 13 13 14 9 5 8 10 9 11 9 2 5 6 13 21 23 24 27 32 32 29 26 24 20 17 15 13 12 13 12 11 8 5 3 2 4 3 4 4 4 7 10 13 15
3 3 1 2 1 1 3 4 3 3 3 2 2 4 6 7 5 3 2 1 1 1 2 2 4 4 4 4 5 6 6 6 7 7 7 8 7 6 6 7 10 13 12 13 15 10 2 4 12 15 15 13 10 9 11 17 25 26 27 30 32 31 28 25 21 18 16 15 15 15 14 11 9 6 3 3 3 4 2 3 3 6 8 11 13 15
4 5 2 2 3 4 4 4 4 5 6 6 4 5 6 5 2 2 3 1 2 4 4 3 4 5 5 5 5 5 5 6 6 7 8 9 8 7 6 8 11 14 13 13 15 13 7 7 14 18 20 20 18 16 13 20 29 29 28 29 30 27 25 22 19 18 17 17 16 14 11 9 7 5 5 4 4 4 2 2 5 7 9 11 13 14
5 6 4 3 4 5 4 5 6 7 8 8 7 6 6 4 1 1 2 3 4 5 5 5 5 6 5 5 6 6 6 6 6 7 8 9 8 7 6 6 10 13 12 12 15 18 18 16 14 12 16 23 21 16 17 25 32 32 29 29 27 24 23 22 19 17 17 18 16 12 8 7 6 7 6 5 5 3 3 4 6 8 9 10 12 12
3 5 5 5 5 4 6 9 9 8 7 6 6 6 6 5 4 4 4 3 3 3 3 4 6 5 5 6 7 6 5 5 5 7 8 7 7 6 5 8 11 12 12 13 16 18 21 22 13 11 17 21 12 18 28 31 33 32 28 26 25 23 23 21 17 16 18 18 15 9 6 7 7 7 7 6 6 5 5 5 6 6 7 9 10 10
4 4 3 5 6 6 8 8 7 8 8 6 5 7 8 6 5 5 6 6 5 4 4 5 6 6 6 6 4 3 4 5 5 6 7 7 6 6 7 10 12 10 8 12 15 15 17 18 11 11 17 15 13 24 29 30 32 31 29 27 25 22 20 19 16 17 18 17 11 7 7 7 7 7 6 7 7 7 6 6 7 6 7 9 10 9
4 6 5 4 5 5 6 5 4 5 7 6 5 8 9 7 6 4 4 8 9 6 6 6 6 7 6 4 1 1 2 3 5 6 7 6 6 8 10 13 13 7 4 10 16 20 22 17 6 5 7 10 21 28 28 28 29 30 29 27 23 20 19 17 15 15 17 15 9 5 5 5 7 8 7 7 7 7 7 7 6 6 7 10 11 10
5 6 6 4 5 6 6 6 4 4 6 7 7 7 7 7 7 6 5 7 8 8 7 7 7 7 6 3 1 2 2 4 5 6 7 7 8 11 13 14 13 9 8 11 13 16 23 20 2 13 9 8 21 32 30 27 28 29 27 24 21 17 15 14 13 13 15 13 7 4 4 4 7 9 8 7 7 8 9 7 6 6 8 10 12 12
Wind_Direction
154 166 243 225 236 230 208 165 181 309 14 36 19 10 332 329 320 326 354 97 132 140 200 188 182 226 249 242 225 227 210 177 180 190 187 172 167 166 169 171 168 177 185 175 170 165 164 164 161 161 162 162 162 162 164 166 167 166 167 168 160 153 152 152 156 167 168 147 133 129 123 121 103 113 130 59 29 240 261 293 284 108 67 46 79 84
130 173 231 228 228 223 194 132 107 51 18 21 44 28 345 326 302 313 344 357 50 95 214 223 177 245 265 280 283 230 204 212 192 188 198 185 177 174 171 176 175 176 178 167 165 163 162 163 161 160 161 163 164 166 168 171 171 172 176 176 167 159 158 160 162 163 162 152 144 137 130 129 113 120 136 66 76 101 24 9 2 79 54 53 83 77
201 220 244 238 215 199 201 104 88 75 35 9 23 37 354 308 306 317 355 17 33 56 327 360 2 292 293 300 302 296 210 223 219 195 199 195 183 179 177 179 181 181 166 158 163 162 162 165 163 161 163 167 169 169 172 174 173 176 182 183 176 168 162 162 167 161 152 150 152 144 137 143 129 122 130 107 101 92 57 50 49 48 338 349 54 60
211 236 238 225 167 123 275 48 69 58 28 346 10 32 287 281 307 315 338 26 57 107 267 353 344 300 305 313 300 282 249 228 222 211 209 200 184 181 181 176 180 183 163 157 165 163 162 167 166 164 166 168 169 170 174 176 175 179 184 185 183 177 168 168 175 173 163 159 156 149 148 149 132 124 130 122 118 106 82 85 95 227 278 301 340 357
221 222 188 160 131 112 307 338 49 55 359 321 314 265 259 276 286 276 277 18 44 27 267 335 345 316 284 278 275 267 258 247 218 210 216 214 195 180 171 168 176 182 167 159 168 167 162 168 171 170 168 168 169 173 178 180 179 181 183 185 186 182 176 175 177 179 174 166 158 151 151 152 145 148 157 145 140 140 127 146 171 224 285 302 327 318
231 217 148 134 139 143 196 303 1 115 29 317 290 248 241 257 279 280 275 38 29 347 291 191 333 301 269 249 257 261 260 258 216 195 205 216 207 187 174 177 175 184 190 167 165 169 165 167 171 170 170 169 172 178 182 184 183 183 183 185 187 185 183 181 179 181 178 168 162 156 153 159 162 161 167 165 153 156 158 160 179 214 271 317 14 2
224 189 138 136 142 158 173 223 233 147 129 289 260 245 244 245 269 278 274 267 89 273 265 171 182 270 295 270 257 253 248 246 214 187 197 206 206 199 198 200 188 186 196 161 152 164 167 165 166 170 173 173 178 183 184 185 186 183 182 185 188 188 187 186 185 184 181 175 172 168 165 169 172 166 165 166 158 158 155 149 169 176 181 307 3 5
175 132 93 110 120 175 175 201 229 172 165 244 246 254 266 256 261 278 268 229 175 243 304 297 186 233 287 276 264 252 250 250 223 198 197 196 201 205 204 205 203 195 185 156 148 161 167 167 168 171 176 179 183 185 185 187 188 185 184 186 190 191 190 189 190 191 187 182 177 179 183 181 182 179 169 160 156 160 159 146 151 157 156 215 223 245
177 145 161 162 177 205 183 217 224 181 191 227 213 225 250 259 310 326 309 264 187 340 319 295 218 227 269 273 285 280 264 254 231 218 207 195 194 200 204 208 208 199 187 166 152 159 167 171 172 174 178 183 185 185 186 188 189 189 187 189 191 191 191 192 194 197 193 185 181 185 189 183 180 181 174 167 165 167 172 165 160 170 173 162 168 193
207 168 172 170 172 195 219 248 234 202 221 220 196 206 274 7 331 345 356 351 10 2 273 265 217 217 274 275 287 287 275 258 238 221 207 198 195 192 194 201 202 198 192 174 157 159 168 173 176 177 179 183 184 185 187 187 188 189 190 191 192 192 193 195 196 198 194 186 188 191 189 182 179 177 175 179 181 180 183 181 177 173 168 172 188 201
263 243 148 151 155 177 227 262 252 231 221 187 164 114 28 355 324 327 328 29 9 304 259 252 229 214 266 277 258 252 258 278 259 200 185 191 194 190 186 187 186 187 187 173 159 160 167 174 178 178 178 181 183 184 185 186 187 189 191 193 193 193 194 197 197 198 194 189 193 195 191 188 186 183 185 188 186 187 190 192 195 186 177 194 205 208
287 306 355 160 157 160 243 276 287 268 238 137 116 70 37 347 339 337 331 67 189 262 251 246 253 243 252 263 259 262 268 291 323 144 176 191 192 190 188 185 177 171 172 168 160 159 162 168 174 177 177 179 178 179 181 185 188 189 191 193 192 192 195 198 199 198 194 191 197 198 193 194 194 189 190 189 188 190 193 195 198 194 194 206 211 217
285 259 243 205 174 177 206 260 305 297 272 123 96 73 62 334 337 323 284 205 207 249 259 252 260 260 251 249 262 279 274 274 293 227 171 166 186 198 193 188 179 164 162 168 163 158 160 160 166 173 177 177 175 177 181 185 187 188 191 193 192 192 194 199 200 199 195 193 198 199 195 196 196 192 192 192 193 195 195 195 197 197 201 206 209 218
301 270 249 225 181 177 175 184 240 275 241 164 140 123 140 169 273 269 252 235 229 259 295 304 292 263 266 266 262 270 272 263 256 233 191 161 172 197 200 181 168 160 152 161 169 163 164 166 167 170 174 176 177 179 181 183 185 187 189 192 194 193 195 198 200 199 198 197 199 200 199 200 200 198 198 197 197 196 196 199 202 202 204 206 207 214
310 299 262 259 214 174 186 187 183 210 229 202 178 158 159 163 189 229 222 222 249 269 290 312 311 232 217 261 271 285 298 294 286 250 222 209 178 172 180 160 152 164 152 155 172 173 171 172 172 173 174 177 180 179 180 181 183 185 188 191 195 195 194 198 199 199 200 201 202 202 204 207 206 207 206 203 199 199 199 202 204 204 205 210 212 216
299 277 248 243 207 178 197 204 185 211 274 259 212 164 177 188 193 214 201 183 183 324 302 264 251 244 225 268 286 301 305 304 313 316 196 225 188 132 144 149 144 158 158 160 174 176 177 176 176 177 176 177 179 177 178 179 181 184 187 191 196 196 195 198 200 200 202 203 202 203 206 210 210 211 210 206 201 202 206 205 203 206 209 212 217 222
15 274 296 314 285 228 229 214 178 173 210 268 259 213 214 202 176 188 267 214 104 319 282 204 254 295 312 294 292 300 293 287 294 304 286 233 204 143 147 155 141 135 144 161 171 170 172 175 176 175 173 174 174 175 177 180 183 185 188 191 195 196 195 198 201 202 203 202 201 203 207 210 212 212 213 210 206 204 208 209 210 214 216 219 227 233
132 261 304 335 318 305 298 270 180 167 172 209 243 247 274 285 120 116 212 329 58 251 261 191 232 280 304 292 302 320 307 296 295 306 320 329 325 156 171 175 157 146 148 137 132 155 163 166 172 170 170 174 175 177 179 181 185 188 189 192 194 195 195 199 203 203 202 201 202 204 207 210 212 214 215 215 212 209 208 211 214 218 223 228 235 241
76 307 304 337 315 309 327 344 318 252 224 220 234 248 311 31 348 6 202 200 167 225 271 253 231 244 229 245 294 321 327 336 346 350 358 21 34 20 360 352 14 65 143 145 128 147 162 162 169 170 171 177 178 179 181 183 186 188 190 194 196 198 198 199 202 202 201 202 204 207 208 210 212 213 214 212 210 210 211 214 217 221 228 234 239 242
64 345 282 331 328 321 342 357 319 306 302 276 260 271 246 156 177 179 203 199 170 206 272 287 268 254 229 216 277 336 355 16 19 21 29 45 55 44 26 14 10 16 342 306 133 150 163 170 176 174 174 178 179 181 182 183 186 189 192 196 198 199 199 199 200 200 201 202 205 208 209 210 211 211 212 211 209 210 212 216 218 223 230 233 236 241
30 338 257 314 341 335 326 298 280 305 325 340 340 320 314 309 143 36 275 165 123 155 208 300 286 264 254 241 72 34 357 15 38 45 41 56 72 64 45 32 22 22 6 351 0 166 170 176 183 180 179 180 179 182 185 185 188 192 195 197 199 199 197 197 199 200 201 203 205 207 208 209 211 211 212 212 212 213 215 217 220 224 229 233 238 248
20 64 241 291 333 309 278 292 309 317 321 327 318 285 267 249 198 303 291 226 110 149 172 162 263 263 261 286 24 16 349 8 30 41 41 47 63 71 59 43 33 22 10 8 357 334 179 177 189 187 184 183 181 183 187 188 190 193 195 197 198 199 198 198 199 200 201 202 203 206 208 209 210 211 212 213 214 217 218 221 223 226 231 237 245 256
355 105 209 264 247 243 268 287 297 302 301 296 286 279 281 261 130 140 235 243 116 186 176 134 237 268 255 192 83 23 360 0 8 25 39 34 37 49 46 36 30 14 354 1 1 345 354 331 203 195 188 186 186 188 190 190 191 192 193 196 196 197 199 200 200 201 201 201 202 205 208 209 210 211 212 212 214 216 218 222 225 229 237 246 257 265
340 70 298 283 275 270 280 280 275 286 301 302 300 318 343 304 146 160 191 189 138 200 180 123 229 271 279 112 89 43 20 8 2 18 30 22 14 19 22 18 14 9 355 347 344 331 342 358 325 212 202 197 193 191 190 188 190 191 191 193 195 197 200 200 199 199 198 199 202 204 206 207 208 209 209 210 211 213 215 219 224 233 244 255 264 270
297 351 24 343 324 323 327 311 296 322 6 354 304 317 336 343 354 7 153 110 129 216 187 152 224 257 272 9 8 356 10 15 7 15 21 14 1 355 359 5 0 2 355 338 334 331 327 340 351 328 257 236 211 195 189 186 186 188 189 190 193 196 198 198 197 196 197 198 199 201 203 205 205 206 207 208 209 210 213 218 226 237 247 255 263 269
146 191 93 125 255 275 261 227 306 341 337 313 297 305 313 321 333 353 11 20 269 250 210 180 231 265 282 326 356 356 5 9 3 5 7 2 356 346 342 343 340 342 338 318 312 318 313 304 294 287 37 20 228 203 192 188 185 185 188 189 192 194 195 195 194 194 195 197 197 198 200 202 204 205 205 206 208 211 215 221 229 236 243 252 259 265
111 191 168 185 218 228 227 249 304 326 308 298 301 299 293 298 323 20 25 246 217 287 304 235 231 288 296 293 307 27 21 8 354 354 353 345 345 343 334 327 320 316 312 301 295 293 289 287 280 272 203 144 205 207 194 191 189 185 186 188 191 193 193 193 193 193 194 194 195 196 199 201 201 202 203 206 208 212 216 221 228 235 243 250 257 262
115 213 213 216 238 248 252 273 295 301 289 285 291 289 282 294 338 356 297 253 229 298 295 260 249 301 290 285 289 359 41 1 325 324 327 325 326 321 309 301 298 297 292 289 290 284 278 274 269 262 225 169 188 207 199 190 192 193 192 191 193 196 196 194 193 191 192 193 193 195 198 200 200 201 202 205 207 211 215 220 228 236 244 250 255 261
136 213 215 216 241 249 249 265 269 263 266 271 272 274 282 320 352 301 261 258 250 241 254 259 260 254 266 282 296 334 59 261 261 265 279 286 285 286 286 285 287 291 292 294 294 290 286 282 273 263 239 199 175 173 183 189 200 210 203 195 196 199 199 196 193 190 190 192 192 195 197 197 198 198 200 202 204 209 213 218 227 236 245 253 257 261
125 211 218 216 239 246 236 253 267 268 274 275 269 270 284 317 308 279 272 273 264 246 253 273 283 266 260 281 301 312 113 216 267 282 285 290 296 305 313 312 309 310 316 318 311 309 313 311 302 287 264 237 190 162 168 188 203 216 210 197 194 196 196 194 191 187 188 190 191 193 193 193 194 196 198 201 203 205 210 219 232 242 249 253 256 262
79 255 242 225 257 260 224 238 269 277 278 275 276 287 310 300 282 279 278 277 277 274 274 292 300 284 273 302 311 301 312 350 317 301 300 314 339 352 346 331 326 326 323 321 316 313 315 316 313 304 290 278 242 178 167 181 197 212 216 200 191 189 190 191 188 185 185 188 189 189 189 190 192 193 195 197 198 203 216 230 240 246 248 249 256 268
32 302 304 317 290 269 176 228 270 288 289 284 287 298 290 269 264 258 252 248 244 255 273 290 290 278 277 289 290 288 311 348 341 330 343 354 357 355 340 324 321 318 313 312 315 317 315 314 312 294 283 288 277 236 190 179 182 191 195 187 179 180 185 187 186 185 184 184 183 182 183 184 185 187 189 192 200 213 226 234 237 239 241 244 261 277
8 308 326 328 293 283 112 265 321 354 324 291 273 221 212 230 244 249 251 247 231 222 239 256 249 255 277 300 313 314 337 3 15 3 344 335 339 332 306 298 303 303 306 313 320 326 323 320 322 309 289 282 279 265 227 193 181 177 177 174 170 175 183 186 188 186 179 176 176 173 174 176 178 182 188 195 210 220 224 229 231 232 238 254 277 283
286 285 284 290 283 279 79 43 2 328 285 259 215 194 228 249 252 256 259 253 241 228 226 251 266 288 319 356 24 2 344 343 326 319 322 315 311 300 291 295 304 310 320 322 317 320 321 316 314 309 301 289 279 272 246 207 187 175 171 169 168 171 178 184 189 185 173 170 172 171 173 177 178 182 190 198 209 218 224 231 234 238 258 281 285 276
260 258 250 237 256 262 72 66 350 267 250 193 162 273 281 278 270 273 272 264 269 347 342 335 342 5 28 43 47 10 335 319 310 311 305 289 286 310 323 326 330 329 325 316 310 310 309 309 307 303 300 294 284 269 237 198 178 167 163 164 165 167 173 181 187 181 169 166 170 172 174 177 177 179 187 198 212 228 237 240 245 264 289 295 282 268
227 218 229 228 235 259 262 130 211 259 278 303 293 294 306 310 342 358 310 303 1 22 18 13 10 23 32 27 23 1 331 318 318 307 280 279 331 4 350 333 329 328 323 321 320 313 307 306 303 296 294 294 286 259 216 185 171 166 164 165 167 167 169 175 180 175 167 164 165 166 165 163 165 172 186 208 226 234 240 249 275 311 327 319 293 287
219 206 207 215 215 223 229 210 227 282 293 294 277 281 305 172 125 112 248 291 324 23 90 78 29 9 6 0 3 359 344 339 336 314 296 339 1 352 335 327 329 329 332 330 322 312 307 303 297 291 287 285 277 247 206 180 168 166 166 167 170 168 164 166 171 169 167 161 155 153 151 150 156 172 188 207 213 172 78 42 21 1 352 341 322 319
217 212 198 204 205 186 208 243 265 276 278 267 208 209 191 168 156 135 123 304 316 25 77 86 52 1 356 357 357 0 6 357 323 295 307 350 351 338 329 329 335 339 335 326 317 311 308 307 304 296 284 275 265 227 183 168 168 172 171 168 166 161 157 160 165 166 164 158 148 144 144 147 156 163 146 112 87 75 62 40 13 354 344 337 334 340
213 211 205 212 212 176 189 226 233 244 255 222 191 199 200 186 157 109 55 306 294 344 15 47 45 11 1 10 13 11 12 338 296 285 312 332 328 324 321 324 334 334 325 317 317 314 311 317 319 302 277 263 251 216 183 174 176 172 164 158 154 151 153 159 162 161 156 149 143 140 140 142 144 136 114 94 76 55 21 355 345 336 329 329 337 341
225 203 201 218 231 223 217 231 243 255 268 173 163 180 213 199 113 74 355 274 279 307 319 56 63 358 314 312 47 23 321 267 276 288 301 310 310 312 326 333 326 322 317 313 316 319 315 326 333 313 279 245 231 213 186 171 165 152 142 144 147 146 144 141 141 142 138 134 132 132 135 136 129 119 106 77 37 353 331 325 319 308 302 317 332 336
323 268 184 196 221 240 240 249 264 263 356 10 2 298 286 328 63 79 237 237 250 265 242 137 145 266 275 254 163 214 243 240 268 291 295 300 306 310 327 327 317 315 314 305 304 317 319 321 334 328 318 41 110 145 155 151 146 138 139 150 155 142 129 124 124 124 123 124 126 124 124 123 114 101 80 28 322 300 303 293 260 254 294 323 334 336
324 324 258 180 204 212 203 218 259 275 94 288 290 329 344 341 54 204 243 253 269 274 264 117 241 297 323 290 207 226 256 263 274 287 292 300 307 311 319 323 320 318 313 301 294 314 328 322 336 335 327 2 98 100 113 129 132 132 139 148 145 130 123 121 121 121 121 123 123 116 111 107 101 103 113 122 127 58 27 230 235 255 300 326 335 335
326 310 312 315 287 252 210 235 271 286 231 210 234 2 8 190 209 270 286 293 307 335 21 24 354 16 14 322 271 257 267 277 279 282 290 296 301 305 307 315 317 310 308 307 303 313 340 340 347 345 331 337 93 107 109 127 139 141 140 137 130 124 120 118 120 122 120 116 110 104 104 108 112 111 101 93 74 7 331 254 238 270 309 321 329 328
328 325 316 322 346 13 326 281 228 224 228 218 254 307 240 211 237 272 270 280 322 37 98 207 275 274 243 265 274 273 275 278 278 284 294 292 289 296 299 306 308 300 299 308 311 314 342 333 323 330 330 316 231 168 190 177 158 144 134 129 125 123 120 118 119 116 110 107 107 111 115 115 110 102 87 82 52 345 310 237 235 290 309 315 322 321
338 12 331 260 275 303 260 260 257 254 258 245 222 239 240 238 249 245 171 179 283 223 177 222 243 250 254 255 262 272 277 277 280 292 298 291 285 284 285 292 296 292 296 313 318 320 357 309 299 305 308 289 249 230 217 177 147 130 126 127 124 120 118 114 110 109 111 116 119 119 121 119 109 107 117 105 56 8 328 223 257 304 311 315 320 317
341 17 27 235 311 329 298 281 300 311 311 306 280 273 281 272 252 118 114 153 228 218 207 216 237 252 260 262 270 278 277 280 294 302 300 295 287 276 278 288 290 293 306 321 318 311 300 275 277 284 289 278 257 238 204 155 133 124 124 125 119 116 115 111 111 115 121 123 120 119 126 125 113 122 136 106 57 27 356 280 301 317 318 316 317 312
347 9 5 321 322 332 312 306 319 314 304 304 305 315 329 337 356 161 198 217 225 228 223 218 234 253 259 260 265 269 274 288 302 301 296 291 280 270 274 276 279 295 313 317 309 303 293 280 275 272 273 269 251 210 163 136 127 124 124 121 117 115 116 118 121 123 125 124 120 119 133 140 130 132 131 100 69 49 16 335 326 328 325 319 312 304
330 357 348 308 297 294 281 289 306 313 311 323 337 336 336 336 314 296 285 258 236 256 268 244 233 238 245 250 252 258 279 298 301 298 298 291 276 272 274 266 268 284 305 310 310 302 279 265 250 208 224 244 222 148 134 127 125 125 123 120 119 119 121 125 129 133 132 126 119 119 145 157 144 136 127 103 77 59 32 0 343 334 329 325 312 297
288 307 291 274 284 283 275 285 312 324 320 333 343 322 313 310 296 294 303 293 272 265 278 266 248 238 238 243 256 280 298 301 301 303 302 300 299 293 290 288 279 269 280 302 313 315 292 272 249 197 204 205 151 129 129 128 128 129 127 125 126 125 123 128 138 143 135 124 119 137 160 158 144 133 124 110 89 59 29 2 346 332 326 330 319 300
267 272 263 266 282 273 268 287 314 307 295 293 294 291 293 295 283 257 265 278 266 241 236 253 261 261 256 257 287 315 289 285 292 299 296 294 303 300 299 306 302 290 331 332 324 329 326 307 273 164 183 165 134 129 131 130 130 131 129 130 130 128 128 137 147 145 133 124 126 144 152 150 145 135 124 114 91 48 19 2 345 327 324 332 323 306
239 258 260 260 262 255 259 270 260 245 264 271 267 267 278 290 281 251 235 253 248 224 219 237 249 257 270 287 212 172 208 260 277 293 296 296 302 301 300 306 305 309 351 346 322 323 322 310 241 128 144 164 134 129 132 133 132 131 131 131 128 127 138 152 152 140 129 120 109 88 84 117 140 132 120 107 76 33 14 14 7 346 336 333 323 309